Weather History for Big Bear City, CA

Change the Weather History Date:

Saturday, March 9, 2013

  Actual Average (KBUO) Record (KBUO)
Temperature  
Mean Temperature 30 °F -  
Max Temperature 35 °F 62 °F 82 °F (1997)
Min Temperature 26 °F 41 °F 37 °F (1998)
Degree Days  
Heating Degree Days 34    
Moisture  
Dew Point 21 °F    
Average Humidity 63    
Maximum Humidity 80    
Minimum Humidity 41    
Precipitation  
Precipitation 0.00 in - - ()
Sea Level Pressure  
Sea Level Pressure 30.05 in    
Wind  
Wind Speed 7 mph (WNW)    
Max Wind Speed 18 mph    
Max Gust Speed 28 mph    
Visibility 10 miles    
Events Snow    
Averages and records for this station are not official NWS values.
T = Trace of Precipitation, MM = Missing Value Source: NWS Daily Summary

Daily Weather History Graph

Daily Weather History Graph

Search for Another Location

Airport:

Trip Planner

Search our weather history database for the weather conditions in past years. The results will help you decide how hot, cold, wet, or windy it might be!

Date:

Astronomy

Mar. 09, 2013 Rise Set
Actual Time 6:05 AM PST 5:50 PM PST
Civil Twilight 5:40 AM PST 6:15 PM PST
Nautical Twilight 5:11 AM PST 6:44 PM PST
Astronomical Twilight 4:42 AM PST 7:13 PM PST
Moon 4:28 AM PST (3/9) 4:00 PM PST (3/9)
Length of Visible Light 12h 35m
Length of Day
11h 45m
Waning Crescent, 5% of the Moon is Illuminated
Mar 9
Waning Crescent
Mar 11
New
Mar 19
First Quarter
Mar 27
Full
Apr 2
Last Quarter

Hourly Weather History & Observations

Time (PST) Temp. Windchill Dew Point Humidity Pressure Visibility Wind Dir Wind Speed Gust Speed Precip Events Conditions
12:15 AM 28.4 °F 21.2 °F 21.2 °F 74% 29.90 in 10.0 mi WSW 6.9 mph - N/A   Scattered Clouds
12:35 AM 28.4 °F 20.4 °F 23.0 °F 80% 29.90 in 10.0 mi WSW 8.1 mph - N/A   Mostly Cloudy
12:55 AM 28.4 °F 19.1 °F 21.2 °F 74% 29.90 in 10.0 mi WSW 10.4 mph 16.1 mph N/A   Mostly Cloudy
1:15 AM 28.4 °F 23.3 °F 23.0 °F 80% 29.92 in 10.0 mi WSW 4.6 mph - N/A   Overcast
1:35 AM 28.4 °F 19.1 °F 21.2 °F 74% 29.90 in 10.0 mi SW 10.4 mph - N/A   Mostly Cloudy
1:55 AM 28.4 °F 22.2 °F 21.2 °F 74% 29.91 in 10.0 mi WSW 5.8 mph - N/A   Scattered Clouds
2:15 AM 28.4 °F 22.2 °F 21.2 °F 74% 29.91 in 10.0 mi WSW 5.8 mph 17.3 mph N/A   Mostly Cloudy
2:35 AM 28.4 °F 18.0 °F 21.2 °F 74% 29.90 in 10.0 mi SW 12.7 mph 19.6 mph N/A   Overcast
2:55 AM 28.4 °F 22.2 °F 21.2 °F 74% 29.91 in 10.0 mi WSW 5.8 mph - N/A   Overcast
3:15 AM 28.4 °F 21.2 °F 23.0 °F 80% 29.91 in 10.0 mi WSW 6.9 mph - N/A   Overcast
3:35 AM 28.4 °F 21.2 °F 21.2 °F 74% 29.92 in 10.0 mi WSW 6.9 mph - N/A   Overcast
3:55 AM 28.4 °F 23.3 °F 21.2 °F 74% 29.92 in 10.0 mi SW 4.6 mph - N/A   Overcast
4:15 AM 28.4 °F 23.3 °F 21.2 °F 74% 29.93 in 10.0 mi WSW 4.6 mph - N/A   Overcast
4:35 AM 28.4 °F 23.3 °F 21.2 °F 74% 29.94 in 10.0 mi West 4.6 mph - N/A   Overcast
4:55 AM 28.4 °F 23.3 °F 23.0 °F 80% 29.94 in 10.0 mi SW 4.6 mph - N/A   Overcast
5:15 AM 28.4 °F 23.3 °F 23.0 °F 80% 29.94 in 10.0 mi West 4.6 mph - N/A   Mostly Cloudy
5:35 AM 26.6 °F 21.2 °F 21.2 °F 80% 29.94 in 10.0 mi WSW 4.6 mph - N/A   Mostly Cloudy
5:55 AM 26.6 °F 19.1 °F 21.2 °F 80% 29.95 in 10.0 mi West 6.9 mph - N/A   Scattered Clouds
6:15 AM 26.6 °F 19.1 °F 21.2 °F 80% 29.94 in 10.0 mi WSW 6.9 mph - N/A Snow Light Snow
6:35 AM 26.6 °F - 21.2 °F 80% 29.96 in 10.0 mi Calm Calm - N/A   Clear
6:55 AM 26.6 °F 22.6 °F 21.2 °F 80% 29.97 in 10.0 mi WSW 3.5 mph - N/A   Scattered Clouds
7:15 AM 26.6 °F 20.0 °F 21.2 °F 80% 29.98 in 10.0 mi WSW 5.8 mph - N/A   Scattered Clouds
7:35 AM 28.4 °F 23.3 °F 23.0 °F 80% 29.98 in 10.0 mi SW 4.6 mph - N/A   Scattered Clouds
7:55 AM 28.4 °F 23.3 °F 23.0 °F 80% 29.99 in 10.0 mi WSW 4.6 mph - N/A   Clear
8:15 AM 30.2 °F 23.4 °F 23.0 °F 75% 30.00 in 10.0 mi SSW 6.9 mph - N/A   Scattered Clouds
8:35 AM 30.2 °F 26.7 °F 23.0 °F 75% 30.00 in 10.0 mi SW 3.5 mph - N/A   Clear
8:55 AM 32.0 °F 27.5 °F 21.2 °F 64% 30.01 in 10.0 mi SW 4.6 mph - N/A   Clear
9:15 AM 32.0 °F 26.4 °F 21.2 °F 64% 30.02 in 10.0 mi West 5.8 mph - N/A   Clear
9:35 AM 33.8 °F 27.0 °F 19.4 °F 56% 30.03 in 10.0 mi NW 8.1 mph 18.4 mph N/A   Clear
9:55 AM 33.8 °F 29.6 °F 19.4 °F 56% 30.04 in 10.0 mi NNW 4.6 mph - N/A   Scattered Clouds
10:15 AM 33.8 °F 28.6 °F 19.4 °F 56% 30.05 in 10.0 mi WNW 5.8 mph - N/A   Scattered Clouds
10:35 AM 33.8 °F 27.0 °F 21.2 °F 60% 30.05 in 10.0 mi West 8.1 mph - N/A   Mostly Cloudy
10:55 AM 33.8 °F 29.6 °F 21.2 °F 60% 30.05 in 10.0 mi West 4.6 mph - N/A   Mostly Cloudy
11:15 AM 33.8 °F 27.7 °F 21.2 °F 60% 30.06 in 10.0 mi WNW 6.9 mph - N/A   Scattered Clouds
11:35 AM 35.6 °F 29.9 °F 19.4 °F 52% 30.06 in 10.0 mi NW 6.9 mph - N/A   Mostly Cloudy
11:55 AM 33.8 °F 27.7 °F 21.2 °F 60% 30.06 in 10.0 mi West 6.9 mph - N/A   Mostly Cloudy
12:15 PM 33.8 °F 29.6 °F 21.2 °F 60% 30.06 in 10.0 mi NNW 4.6 mph - N/A   Mostly Cloudy
12:35 PM 33.8 °F 29.6 °F 23.0 °F 65% 30.06 in 10.0 mi West 4.6 mph - N/A   Mostly Cloudy
12:55 PM 33.8 °F 28.6 °F 21.2 °F 60% 30.06 in 10.0 mi West 5.8 mph - N/A   Mostly Cloudy
1:15 PM 33.8 °F 23.9 °F 23.0 °F 65% 30.06 in 10.0 mi West 15.0 mph - N/A   Overcast
1:35 PM 33.8 °F 28.6 °F 23.0 °F 65% 30.06 in 10.0 mi West 5.8 mph 16.1 mph N/A   Overcast
1:55 PM 33.8 °F 26.4 °F 21.2 °F 60% 30.07 in 10.0 mi North 9.2 mph - N/A   Overcast
2:15 PM 33.8 °F 29.6 °F 21.2 °F 60% 30.08 in 10.0 mi West 4.6 mph - N/A   Overcast
2:35 PM 33.8 °F 26.4 °F 21.2 °F 60% 30.08 in 10.0 mi NNW 9.2 mph - N/A   Overcast
2:55 PM 33.8 °F 26.4 °F 21.2 °F 60% 30.09 in 10.0 mi NW 9.2 mph 17.3 mph N/A   Overcast
3:15 PM 33.8 °F 27.0 °F 23.0 °F 65% 30.09 in 10.0 mi NNE 8.1 mph - N/A   Overcast
3:35 PM 35.6 °F 29.2 °F 23.0 °F 60% 30.09 in 10.0 mi NNW 8.1 mph 18.4 mph N/A   Overcast
3:55 PM 35.6 °F 28.6 °F 23.0 °F 60% 30.09 in 10.0 mi WNW 9.2 mph - N/A   Mostly Cloudy
4:15 PM 35.6 °F 29.2 °F 21.2 °F 56% 30.11 in 10.0 mi NNW 8.1 mph - N/A   Mostly Cloudy
4:35 PM 35.6 °F 31.7 °F 21.2 °F 56% 30.11 in 10.0 mi NNW 4.6 mph 9.2 mph N/A   Overcast
4:55 PM 35.6 °F 32.8 °F 21.2 °F 56% 30.12 in 10.0 mi NNE 3.5 mph - N/A   Mostly Cloudy
5:15 PM 35.6 °F 29.2 °F 21.2 °F 56% 30.12 in 10.0 mi NE 8.1 mph - N/A   Mostly Cloudy
5:35 PM 33.8 °F - 21.2 °F 60% 30.13 in 10.0 mi Calm Calm - N/A   Scattered Clouds
5:55 PM 33.8 °F - 21.2 °F 60% 30.13 in 10.0 mi Calm Calm - N/A   Clear
6:15 PM 33.8 °F 30.8 °F 21.2 °F 60% 30.14 in 10.0 mi NNE 3.5 mph - N/A   Clear
6:35 PM 33.8 °F 30.8 °F 21.2 °F 60% 30.15 in 10.0 mi NNE 3.5 mph - N/A   Clear
6:55 PM 33.8 °F 30.8 °F 21.2 °F 60% 30.16 in 10.0 mi NE 3.5 mph - N/A   Clear
7:15 PM 33.8 °F 30.8 °F 21.2 °F 60% 30.16 in 10.0 mi NNE 3.5 mph - N/A   Clear
7:35 PM 33.8 °F 27.7 °F 19.4 °F 56% 30.17 in 10.0 mi NE 6.9 mph 20.7 mph N/A   Clear
7:55 PM 33.8 °F 27.0 °F 19.4 °F 56% 30.18 in 10.0 mi NNE 8.1 mph 18.4 mph N/A   Clear
8:15 PM 35.6 °F 28.0 °F 17.6 °F 48% 30.19 in 10.0 mi NNE 10.4 mph 19.6 mph N/A   Clear
8:35 PM 35.6 °F 28.0 °F 17.6 °F 48% 30.18 in 10.0 mi East 10.4 mph 17.3 mph N/A   Clear
8:55 PM 35.6 °F 29.2 °F 17.6 °F 48% 30.19 in 10.0 mi NE 8.1 mph 19.6 mph N/A   Clear
9:15 PM 35.6 °F 28.6 °F 17.6 °F 48% 30.20 in 10.0 mi NE 9.2 mph 21.9 mph N/A   Clear
9:35 PM 35.6 °F 26.6 °F 15.8 °F 44% 30.20 in 10.0 mi NNE 13.8 mph 24.2 mph N/A   Clear
9:55 PM 35.6 °F 26.2 °F 15.8 °F 44% 30.20 in 10.0 mi NE 15.0 mph 27.6 mph N/A   Clear
10:15 PM 35.6 °F 25.2 °F 14.0 °F 41% 30.21 in 10.0 mi ENE 18.4 mph 25.3 mph N/A   Clear
10:35 PM 35.6 °F 26.6 °F 14.0 °F 41% 30.21 in 10.0 mi NE 13.8 mph 27.6 mph N/A   Clear
10:55 PM 35.6 °F 28.6 °F 14.0 °F 41% 30.21 in 10.0 mi NE 9.2 mph 20.7 mph N/A   Clear
11:15 PM 35.6 °F 25.5 °F 14.0 °F 41% 30.22 in 10.0 mi NE 17.3 mph 24.2 mph N/A   Clear
11:35 PM 35.6 °F 26.2 °F 15.8 °F 44% 30.23 in 10.0 mi NE 15.0 mph 21.9 mph N/A   Clear
11:55 PM 33.8 °F 24.8 °F 15.8 °F 48% 30.23 in 10.0 mi NE 12.7 mph 23.0 mph N/A   Clear